Weather History for Evergreen, AL

Change the Weather History Date:

Monday, April 29, 2013

  Actual Average (KPRN) Record (KPRN)
Temperature  
Mean Temperature 72 °F -  
Max Temperature 82 °F 80 °F 90 °F (1943)
Min Temperature 62 °F 54 °F 38 °F (1928)
Cooling Degree Days 7    
Growing Degree Days 22 (Base 50)    
Moisture  
Dew Point 60 °F    
Average Humidity 72    
Maximum Humidity 94    
Minimum Humidity 41    
Precipitation  
Precipitation 0.00 in - - ()
Sea Level Pressure  
Sea Level Pressure 29.98 in    
Wind  
Wind Speed 3 mph (NNE)    
Max Wind Speed 8 mph    
Max Gust Speed -    
Visibility 10 miles    
Events      
Averages and records for this station are not official NWS values.
T = Trace of Precipitation, MM = Missing Value Source: NWS Daily Summary

Daily Weather History Graph

Daily Weather History Graph

Search for Another Location

Airport:

Trip Planner

Search our weather history database for the weather conditions in past years. The results will help you decide how hot, cold, wet, or windy it might be!

Date:

Astronomy

Apr. 29, 2013 Rise Set
Actual Time 6:04 AM CDT 7:26 PM CDT
Civil Twilight 5:39 AM CDT 7:52 PM CDT
Nautical Twilight 5:08 AM CDT 8:23 PM CDT
Astronomical Twilight 4:36 AM CDT 8:54 PM CDT
Moon 11:45 PM CDT (4/29) 9:31 AM CDT (4/29)
Length of Visible Light 14h 13m
Length of Day
13h 21m
Waning Gibbous, 80% of the Moon is Illuminated
Apr 29
Waning Gibbous
May 2
Last Quarter
May 9
New
May 17
First Quarter
May 24
Full

Hourly Weather History & Observations

Time (CDT) Temp. Heat Index Dew Point Humidity Pressure Visibility Wind Dir Wind Speed Gust Speed Precip Events Conditions
12:53 AM 64.9 °F - 60.1 °F 84% 29.98 in 10.0 mi South 4.6 mph - N/A   Clear
1:53 AM 64.0 °F - 60.1 °F 87% 29.97 in 10.0 mi Calm Calm - N/A   Partly Cloudy
2:53 AM 63.0 °F - 60.1 °F 90% 29.97 in 10.0 mi Calm Calm - N/A   Clear
3:53 AM 63.0 °F - 60.1 °F 90% 29.97 in 10.0 mi Calm Calm - N/A   Overcast
4:28 AM 62.6 °F - 60.8 °F 94% 29.98 in 10.0 mi North 5.8 mph - N/A   Mostly Cloudy
4:53 AM 63.0 °F - 60.1 °F 90% 29.99 in 10.0 mi NNW 3.5 mph - N/A   Overcast
5:53 AM 63.0 °F - 60.1 °F 90% 29.99 in 10.0 mi Calm Calm - 0.00 in   Overcast
6:53 AM 63.0 °F - 60.1 °F 90% 30.00 in 8.0 mi ESE 3.5 mph - N/A   Overcast
7:53 AM 64.9 °F - 61.0 °F 87% 30.02 in 10.0 mi North 3.5 mph - N/A   Scattered Clouds
8:53 AM 71.1 °F - 62.1 °F 73% 30.02 in 10.0 mi NNE 4.6 mph - N/A   Scattered Clouds
9:53 AM 73.0 °F - 63.0 °F 71% 30.03 in 10.0 mi Calm Calm - N/A   Clear
10:24 AM 75.2 °F - 62.6 °F 65% 30.03 in 10.0 mi NE 4.6 mph - N/A   Mostly Cloudy
10:53 AM 75.0 °F - 61.0 °F 62% 30.02 in 10.0 mi NNW 3.5 mph - N/A   Mostly Cloudy
11:00 AM 75.2 °F - 60.8 °F 61% 30.03 in 10.0 mi NNE 3.5 mph - N/A   Scattered Clouds
11:53 AM 78.1 °F - 60.1 °F 54% 30.01 in 10.0 mi Calm Calm - N/A   Scattered Clouds
12:53 PM 81.0 °F 81.7 °F 61.0 °F 50% 29.99 in 10.0 mi Variable 3.5 mph - N/A   Scattered Clouds
1:53 PM 80.1 °F 80.6 °F 57.9 °F 47% 29.97 in 10.0 mi North 4.6 mph - N/A   Mostly Cloudy
2:53 PM 82.0 °F 82.1 °F 59.0 °F 45% 29.95 in 10.0 mi North 8.1 mph - N/A   Scattered Clouds
3:53 PM 82.9 °F 82.4 °F 57.0 °F 41% 29.93 in 10.0 mi Variable 6.9 mph - N/A   Partly Cloudy
4:53 PM 79.0 °F - 59.0 °F 50% 29.92 in 10.0 mi NNE 3.5 mph - N/A   Mostly Cloudy
5:53 PM 80.1 °F 80.9 °F 60.1 °F 50% 29.92 in 10.0 mi NNE 4.6 mph - N/A   Clear
6:53 PM 75.0 °F - 61.0 °F 62% 29.93 in 10.0 mi Calm Calm - N/A   Clear
7:53 PM 72.0 °F - 61.0 °F 68% 29.94 in 10.0 mi South 5.8 mph - N/A   Mostly Cloudy
8:53 PM 68.0 °F - 61.0 °F 78% 29.95 in 10.0 mi Calm Calm - N/A   Clear
9:53 PM 66.0 °F - 61.0 °F 84% 29.96 in 10.0 mi Calm Calm - N/A   Clear
10:53 PM 63.0 °F - 60.1 °F 90% 29.96 in 10.0 mi Calm Calm - N/A   Clear
11:53 PM 62.1 °F - 59.0 °F 90% 29.96 in 7.0 mi Calm Calm - N/A   Clear